This is the latest recevied weather packets stored in our database for station/object K4ZZR. If no packets are shown the sender has not sent any weather packets the latest 10 day(s).
| Time | Temp. | Humidity | Pressure | Rain* | Wind** | Luminosity | Snow |
|---|---|---|---|---|---|---|---|
| 1777577575 | 31.11° C | 52% | 1010.2 hPa | 0 mm | - | 852 W/m² | - |
| 1777577272 | 30.56° C | 54% | 1010.2 hPa | 0 mm | - | 267 W/m² | - |
| 1777576967 | 31.11° C | 51% | 1010.5 hPa | 0 mm | - | 257 W/m² | - |
| 1777576664 | 31.11° C | 51% | 1010.4 hPa | 0 mm | - | 817 W/m² | - |
| 1777576358 | 31.11° C | 51% | 1010.4 hPa | 0 mm | - | 800 W/m² | - |
| 1777576055 | 31.67° C | 50% | 1010.4 hPa | 0 mm | - | 818 W/m² | - |
| 1777575751 | 31.11° C | 50% | 1010.5 hPa | 0 mm | - | 818 W/m² | - |
| 1777575447 | 30.56° C | 51% | 1010.8 hPa | 0 mm | - | 832 W/m² | - |
| 1777575143 | 31.11° C | 50% | 1010.9 hPa | 0 mm | - | 853 W/m² | - |
| 1777574838 | 30.56° C | 50% | 1010.8 hPa | 0 mm | - | 858 W/m² | - |
| 1777574537 | 31.67° C | 49% | 1010.9 hPa | 0 mm | - | 870 W/m² | - |
| 1777574233 | 31.11° C | 49% | 1010.8 hPa | 0 mm | - | 812 W/m² | - |
| 1777573927 | 31.11° C | 51% | 1010.6 hPa | 0 mm | - | 902 W/m² | - |
| 1777573623 | 30.56° C | 50% | 1010.8 hPa | 0 mm | - | 1003 W/m² | - |
| 1777573319 | 30.56° C | 52% | 1010.8 hPa | 0 mm | - | 752 W/m² | - |
| 1777573015 | 30.56° C | 50% | 1010.8 hPa | 0 mm | - | 1020 W/m² | - |
| 1777572711 | 31.11° C | 51% | 1010.8 hPa | 0 mm | - | 847 W/m² | - |
| 1777572406 | 31.11° C | 51% | 1010.8 hPa | 0 mm | - | 478 W/m² | - |
| 1777572102 | 31.11° C | 50% | 1010.7 hPa | 0 mm | - | 396 W/m² | - |
| 1777571797 | 31.11° C | 50% | 1010.9 hPa | 0 mm | - | 651 W/m² | - |
| 1777571494 | 31.11° C | 50% | 1011 hPa | 0 mm | - | 723 W/m² | - |
| 1777571191 | 30.56° C | 50% | 1010.9 hPa | 0 mm | - | 799 W/m² | - |
| 1777570886 | 30.56° C | 49% | 1010.8 hPa | 0 mm | - | 770 W/m² | - |
| 1777570582 | 30.56° C | 49% | 1011.2 hPa | 0 mm | - | 448 W/m² | - |
| 1777570280 | 30.56° C | 50% | 1011.2 hPa | 0 mm | - | 699 W/m² | - |
* Rain latest hour (hover to see other rain measurements)
** Current wind speed in m/s (hover to see current wind gust speed)